^^
Saratoga-Weather Station Historical Data
Daily Summary for August 17, 2021 Units:  English    Metric   Both
Daily Weekly Monthly Yearly Custom
  High: Low: Average:
Temperature: 45.7 °F 40.3 °F 43.2 °F
Dew Point: 44.2 °F 38.7 °F 41.4 °F
Humidity: 95% 92% 94%
Wind Speed: 4.9mph 0mph 1.1mph
Wind Gust: 8mph - -
Wind- - West
Pressure: 30.4 in 30.1 in -
Precipitation: 0 in    
Historical Graphs
 
 
Tabular Data for August 17, 2021
Time Temperature Dew Point Pressure Wind Wind Speed Wind Gust Humidity Rainfall Rate (Hourly) solar
00:01 41.4 °F 39.2 °F 30.2 in Calm     92% 0 in 0 W/m2
00:06 41.4 °F 39.2 °F 30.2 in Calm   4 mph 92% 0 in 0 W/m2
00:11 41.4 °F 39.2 °F 30.2 in WNW 2 mph 2 mph 92% 0 in 0 W/m2
00:16 41.4 °F 39.2 °F 30.2 in West 0.9 mph 3 mph 92% 0 in 0 W/m2
00:21 41.4 °F 39.2 °F 30.2 in West 2.9 mph 4 mph 92% 0 in 0 W/m2
00:26 41.4 °F 39.2 °F 30.2 in WSW 0.9 mph 3 mph 92% 0 in 0 W/m2
00:31 41.4 °F 39.2 °F 30.2 in WSW 2 mph 3 mph 92% 0 in 0 W/m2
00:36 41.4 °F 39.2 °F 30.2 in West 2 mph 2 mph 92% 0 in 0 W/m2
00:41 41.4 °F 39.6 °F 30.2 in Calm   3 mph 93% 0 in 0 W/m2
00:46 41.4 °F 39.6 °F 30.2 in West 0.9 mph 2 mph 93% 0 in 0 W/m2
00:51 41.2 °F 39.4 °F 30.2 in West 2 mph 3 mph 93% 0 in 0 W/m2
00:56 41.2 °F 39.4 °F 30.2 in WNW 2 mph 3 mph 93% 0 in 0 W/m2
01:01 41.2 °F 39.4 °F 30.2 in WNW 2 mph 2 mph 93% 0 in 0 W/m2
01:06 41.2 °F 39.4 °F 30.2 in Calm     93% 0 in 0 W/m2
01:12 41.2 °F 39.4 °F 30.2 in Calm   3 mph 93% 0 in 0 W/m2
01:17 41.2 °F 39.4 °F 30.2 in WNW 0.9 mph 3 mph 93% 0 in 0 W/m2
01:22 41.2 °F 39.4 °F 30.2 in WNW 2 mph 2 mph 93% 0 in 0 W/m2
01:27 41.2 °F 39.4 °F 30.2 in West 2 mph 2 mph 93% 0 in 0 W/m2
01:32 41.2 °F 39.4 °F 30.2 in Calm   2 mph 93% 0 in 0 W/m2
01:37 41.2 °F 39.4 °F 30.2 in Calm   1 mph 93% 0 in 0 W/m2
01:42 41.2 °F 39.4 °F 30.1 in Calm   2 mph 93% 0 in 0 W/m2
01:47 41.2 °F 39.4 °F 30.1 in Calm   1 mph 93% 0 in 0 W/m2
01:52 41.2 °F 39.4 °F 30.1 in Calm   2 mph 93% 0 in 0 W/m2
01:57 41 °F 39.2 °F 30.1 in Calm     93% 0 in 0 W/m2
02:02 41 °F 39.2 °F 30.1 in Calm     93% 0 in 0 W/m2
02:07 41 °F 39.2 °F 30.1 in Calm   1 mph 93% 0 in 0 W/m2
02:12 41 °F 39.2 °F 30.2 in Calm   1 mph 93% 0 in 0 W/m2
02:17 40.8 °F 39 °F 30.2 in Calm   1 mph 93% 0 in 0 W/m2
02:22 40.8 °F 39 °F 30.2 in Calm     93% 0 in 0 W/m2
02:27 40.8 °F 39.2 °F 30.2 in Calm     94% 0 in 0 W/m2
02:32 40.8 °F 39.2 °F 30.2 in Calm   2 mph 94% 0 in 0 W/m2
02:37 40.8 °F 39.2 °F 30.2 in WNW 0.9 mph 2 mph 94% 0 in 0 W/m2
02:42 40.8 °F 39 °F 30.2 in Calm     93% 0 in 0 W/m2
02:47 40.8 °F 39 °F 30.2 in Calm   2 mph 93% 0 in 0 W/m2
02:52 40.8 °F 39 °F 30.2 in West 0.9 mph 3 mph 93% 0 in 0 W/m2
02:57 40.8 °F 39 °F 30.2 in West 2 mph 3 mph 93% 0 in 0 W/m2
03:02 40.8 °F 39.2 °F 30.2 in West 0.9 mph 2 mph 94% 0 in 0 W/m2
03:07 40.8 °F 39 °F 30.2 in West 0.9 mph 3 mph 93% 0 in 0 W/m2
03:12 40.8 °F 39 °F 30.2 in Calm   3 mph 93% 0 in 0 W/m2
03:17 40.8 °F 39 °F 30.2 in West 2 mph 3 mph 93% 0 in 0 W/m2
03:22 40.8 °F 39 °F 30.2 in Calm   4 mph 93% 0 in 0 W/m2
03:27 40.8 °F 39 °F 30.2 in West 2 mph 3 mph 93% 0 in 0 W/m2
03:32 40.8 °F 39 °F 30.2 in West 0.9 mph 2 mph 93% 0 in 0 W/m2
03:37 40.6 °F 38.8 °F 30.2 in West 0.9 mph 2 mph 93% 0 in 0 W/m2
03:42 40.6 °F 38.8 °F 30.2 in Calm   1 mph 93% 0 in 0 W/m2
03:47 40.6 °F 39 °F 30.2 in West 2 mph 2 mph 94% 0 in 0 W/m2
03:52 40.6 °F 38.8 °F 30.2 in West 0.9 mph 2 mph 93% 0 in 0 W/m2
03:57 40.6 °F 38.8 °F 30.2 in West 0.9 mph 2 mph 93% 0 in 0 W/m2
04:02 40.6 °F 39 °F 30.2 in West 0.9 mph 2 mph 94% 0 in 0 W/m2
04:07 40.6 °F 39 °F 30.2 in Calm   3 mph 94% 0 in 0 W/m2
04:12 40.6 °F 39 °F 30.2 in Calm   1 mph 94% 0 in 0 W/m2
04:17 40.5 °F 38.8 °F 30.2 in Calm   2 mph 94% 0 in 0 W/m2
04:22 40.5 °F 38.8 °F 30.2 in NW 0.9 mph 3 mph 94% 0 in 0 W/m2
04:27 40.5 °F 38.8 °F 30.2 in West 2.9 mph 4 mph 94% 0 in 0 W/m2
04:32 40.5 °F 38.8 °F 30.2 in West 0.9 mph 3 mph 94% 0 in 0 W/m2
04:37 40.5 °F 38.8 °F 30.2 in Calm   4 mph 94% 0 in 0 W/m2
04:42 40.5 °F 38.8 °F 30.1 in Calm     94% 0 in 0 W/m2
04:47 40.5 °F 38.8 °F 30.2 in Calm     94% 0 in 0 W/m2
04:52 40.3 °F 38.7 °F 30.1 in Calm   2 mph 94% 0 in 0 W/m2
04:57 40.3 °F 38.7 °F 30.1 in Calm     94% 0 in 0 W/m2
05:02 40.3 °F 38.7 °F 30.2 in Calm     94% 0 in 0 W/m2
05:07 40.3 °F 38.7 °F 30.2 in Calm     94% 0 in 0 W/m2
05:12 40.5 °F 38.8 °F 30.2 in NW 2 mph 2 mph 94% 0 in 0 W/m2
05:17 40.5 °F 38.8 °F 30.2 in NW 0.9 mph 3 mph 94% 0 in 0 W/m2
05:22 40.5 °F 38.8 °F 30.2 in WSW 0.9 mph 3 mph 94% 0 in 0 W/m2
05:27 40.5 °F 38.8 °F 30.2 in West 2.9 mph 6 mph 94% 0 in 0 W/m2
05:32 40.5 °F 38.8 °F 30.2 in West 2.9 mph 3 mph 94% 0 in 0 W/m2
05:37 40.5 °F 38.8 °F 30.2 in WNW 2 mph 6 mph 94% 0 in 0 W/m2
05:42 40.5 °F 38.8 °F 30.2 in WNW 2 mph 7 mph 94% 0 in 0 W/m2
05:47 40.5 °F 38.8 °F 30.2 in WNW 2.9 mph 4 mph 94% 0 in 0 W/m2
05:52 40.5 °F 38.8 °F 30.2 in West 2.9 mph 7 mph 94% 0 in 0 W/m2
05:57 40.5 °F 38.8 °F 30.2 in West 2 mph 3 mph 94% 0 in 0 W/m2
06:02 40.5 °F 38.8 °F 30.2 in West 4 mph 6 mph 94% 0 in 0 W/m2
06:07 40.5 °F 38.8 °F 30.2 in WNW 4 mph 6 mph 94% 0 in 0 W/m2
06:12 40.5 °F 38.8 °F 30.2 in West 2 mph 4 mph 94% 0 in 0 W/m2
06:17 40.5 °F 38.8 °F 30.2 in WNW 2.9 mph 5 mph 94% 0 in 0 W/m2
06:22 40.5 °F 38.8 °F 30.2 in West 2 mph 8 mph 94% 0 in 0 W/m2
06:27 40.5 °F 38.8 °F 30.2 in West 0.9 mph 4 mph 94% 0 in 0 W/m2
06:32 40.5 °F 38.8 °F 30.2 in West 2 mph 8 mph 94% 0 in 0 W/m2
06:37 40.5 °F 38.8 °F 30.2 in NW 0.9 mph 4 mph 94% 0 in 0 W/m2
06:42 40.5 °F 38.8 °F 30.2 in WNW 2 mph 4 mph 94% 0 in 0 W/m2
06:47 40.5 °F 38.8 °F 30.2 in NW 0.9 mph 3 mph 94% 0 in 0 W/m2
06:52 40.6 °F 39 °F 30.2 in WNW 2 mph 4 mph 94% 0 in 0 W/m2
06:57 40.6 °F 39 °F 30.2 in West 2 mph 3 mph 94% 0 in 0 W/m2
07:02 40.6 °F 39 °F 30.2 in WNW 2 mph 4 mph 94% 0 in 0 W/m2
07:07 40.6 °F 39 °F 30.2 in WNW 2.9 mph 4 mph 94% 0 in 0 W/m2
07:12 40.6 °F 39 °F 30.2 in NW 2 mph 5 mph 94% 0 in 0 W/m2
07:17 40.6 °F 39 °F 30.2 in WNW 0.9 mph 3 mph 94% 0 in 0 W/m2
07:22 40.6 °F 39 °F 30.2 in NNW 0.9 mph 5 mph 94% 0 in 0 W/m2
07:27 40.6 °F 39 °F 30.2 in SW 2.9 mph 6 mph 94% 0 in 0 W/m2
07:32 40.6 °F 39 °F 30.2 in West 2 mph 3 mph 94% 0 in 0 W/m2
07:37 40.6 °F 39 °F 30.2 in NW 2 mph 4 mph 94% 0 in 0 W/m2
07:42 40.6 °F 39 °F 30.2 in West 2.9 mph 3 mph 94% 0 in 0 W/m2
07:47 40.6 °F 39 °F 30.2 in Calm   3 mph 94% 0 in 0 W/m2
07:52 40.6 °F 39 °F 30.2 in NW 2 mph 5 mph 94% 0 in 0 W/m2
07:57 40.6 °F 39 °F 30.2 in Calm     94% 0 in 0 W/m2
08:02 40.6 °F 39 °F 30.2 in ESE 0.9 mph 5 mph 94% 0 in 0 W/m2
08:07 40.8 °F 39.2 °F 30.2 in West 0.9 mph 3 mph 94% 0 in 5 W/m2
08:12 40.8 °F 39.2 °F 30.2 in WSW 0.9 mph 1 mph 94% 0 in 5 W/m2
08:17 40.8 °F 39.2 °F 30.2 in West 0.9 mph 3 mph 94% 0 in 7 W/m2
08:22 40.8 °F 39.2 °F 30.2 in West 2 mph 2 mph 94% 0 in 11 W/m2
08:27 40.8 °F 39.2 °F 30.2 in Calm   2 mph 94% 0 in 14 W/m2
08:32 40.8 °F 39.2 °F 30.2 in WNW 0.9 mph 1 mph 94% 0 in 18 W/m2
08:37 40.8 °F 39.2 °F 30.2 in Calm   2 mph 94% 0 in 19 W/m2
08:42 41 °F 39.4 °F 30.2 in Calm   2 mph 94% 0 in 25 W/m2
08:47 41 °F 39.4 °F 30.2 in Calm   3 mph 94% 0 in 28 W/m2
08:52 41.2 °F 39.6 °F 30.2 in Calm   2 mph 94% 0 in 40 W/m2
08:57 41.2 °F 39.6 °F 30.2 in Calm   3 mph 94% 0 in 42 W/m2
09:02 41.2 °F 39.6 °F 30.2 in WNW 2.9 mph 6 mph 94% 0 in 37 W/m2
09:07 41.2 °F 39.6 °F 30.2 in Calm     94% 0 in 42 W/m2
09:12 41.4 °F 39.7 °F 30.2 in NW 0.9 mph 5 mph 94% 0 in 32 W/m2
09:17 41.4 °F 39.7 °F 30.2 in Calm   3 mph 94% 0 in 54 W/m2
09:22 41.4 °F 39.7 °F 30.2 in NW 4 mph 4 mph 94% 0 in 72 W/m2
09:27 41.5 °F 39.9 °F 30.2 in Calm   2 mph 94% 0 in 100 W/m2
09:32 41.5 °F 39.9 °F 30.2 in Calm   2 mph 94% 0 in 79 W/m2
09:37 41.7 °F 40.1 °F 30.2 in West 2 mph 3 mph 94% 0 in 81 W/m2
09:42 41.7 °F 40.1 °F 30.2 in West 2 mph 4 mph 94% 0 in 51 W/m2
09:47 42.1 °F 40.5 °F 30.2 in NW 2 mph 2 mph 94% 0 in 54 W/m2
09:52 42.1 °F 40.5 °F 30.2 in West 0.9 mph 4 mph 94% 0 in 54 W/m2
09:57 42.3 °F 40.6 °F 30.2 in NNW 2.9 mph 4 mph 94% 0 in 47 W/m2
10:02 42.3 °F 40.6 °F 30.2 in West 2.9 mph 7 mph 94% 0 in 60 W/m2
10:07 42.3 °F 40.6 °F 30.2 in NW 4 mph 4 mph 94% 0 in 49 W/m2
10:12 42.3 °F 40.6 °F 30.2 in WSW 2 mph 5 mph 94% 0 in 62 W/m2
10:17 42.3 °F 40.6 °F 30.2 in SW 0.9 mph 1 mph 94% 0 in 72 W/m2
10:22 42.4 °F 40.8 °F 30.2 in Calm     94% 0 in 86 W/m2
10:27 42.4 °F 40.8 °F 30.2 in WSW 0.9 mph 2 mph 94% 0 in 83 W/m2
10:32 42.4 °F 40.8 °F 30.2 in NNW 2 mph 4 mph 94% 0 in 74 W/m2
10:37 42.6 °F 41 °F 30.2 in Calm   5 mph 94% 0 in 98 W/m2
10:42 42.6 °F 41 °F 30.2 in Calm   3 mph 94% 0 in 97 W/m2
10:47 42.6 °F 41 °F 30.2 in WSW 2.9 mph 7 mph 94% 0 in 88 W/m2
10:52 42.6 °F 41 °F 30.2 in WNW 2.9 mph 7 mph 94% 0 in 90 W/m2
10:57 42.6 °F 41 °F 30.2 in NW 2.9 mph 7 mph 94% 0 in 77 W/m2
11:02 42.6 °F 41 °F 30.2 in West 2 mph 5 mph 94% 0 in 77 W/m2
11:07 42.6 °F 41 °F 30.2 in NW 2.9 mph 4 mph 94% 0 in 62 W/m2
11:12 42.6 °F 41 °F 30.2 in NW 2.9 mph 7 mph 94% 0 in 83 W/m2
11:17 42.8 °F 41.2 °F 30.2 in WNW 2 mph 4 mph 94% 0 in 88 W/m2
11:22 43 °F 41.4 °F 30.2 in Calm   7 mph 94% 0 in 97 W/m2
11:27 43 °F 41.4 °F 30.2 in WSW 2.9 mph 4 mph 94% 0 in 72 W/m2
11:32 43.2 °F 41.4 °F 30.2 in Calm   1 mph 93% 0 in 54 W/m2
11:37 43.2 °F 41.4 °F 30.2 in West 0.9 mph 4 mph 93% 0 in 62 W/m2
11:42 43.2 °F 41.4 °F 30.2 in Calm   2 mph 93% 0 in 79 W/m2
11:47 43.2 °F 41.4 °F 30.2 in WSW 2.9 mph 4 mph 93% 0 in 91 W/m2
11:53 43.3 °F 41.5 °F 30.2 in WNW 2 mph 4 mph 93% 0 in 72 W/m2
11:58 43.3 °F 41.5 °F 30.2 in Calm   2 mph 93% 0 in 72 W/m2
12:03 43.5 °F 41.7 °F 30.2 in Calm     93% 0 in 67 W/m2
12:08 43.7 °F 41.7 °F 30.2 in WNW 2 mph 2 mph 93% 0 in 79 W/m2
12:13 43.7 °F 41.7 °F 30.2 in Calm   3 mph 93% 0 in 132 W/m2
12:18 43.7 °F 41.7 °F 30.2 in Calm   2 mph 93% 0 in 91 W/m2
12:23 43.9 °F 41.9 °F 30.2 in Calm   3 mph 93% 0 in 69 W/m2
12:28 43.9 °F 41.9 °F 30.2 in NE 2 mph 4 mph 93% 0 in 65 W/m2
12:33 43.9 °F 41.9 °F 30.2 in Calm   2 mph 93% 0 in 84 W/m2
12:38 43.9 °F 41.9 °F 30.2 in West 0.9 mph 1 mph 93% 0 in 62 W/m2
12:43 44.1 °F 42.1 °F 30.2 in Calm     93% 0 in 69 W/m2
12:48 44.1 °F 42.1 °F 30.2 in West 0.9 mph 5 mph 93% 0 in 69 W/m2
12:53 44.1 °F 42.1 °F 30.2 in SW 0.9 mph 2 mph 93% 0 in 81 W/m2
12:58 44.2 °F 42.3 °F 30.2 in WNW 2 mph 5 mph 93% 0 in 100 W/m2
13:03 44.2 °F 42.3 °F 30.2 in Calm     93% 0 in 114 W/m2
13:08 44.2 °F 42.3 °F 30.2 in North 0.9 mph 2 mph 93% 0 in 128 W/m2
13:13 44.4 °F 42.8 °F 30.2 in Calm   1 mph 94% 0 in 83 W/m2
13:18 44.4 °F 42.8 °F 30.2 in NW 0.9 mph 2 mph 94% 0 in 105 W/m2
13:23 44.6 °F 43 °F 30.2 in Calm   3 mph 94% 0 in 114 W/m2
13:28 44.8 °F 42.8 °F 30.2 in Calm   3 mph 93% 0 in 116 W/m2
13:33 44.8 °F 42.8 °F 30.2 in ENE 2 mph 2 mph 93% 0 in 114 W/m2
13:38 45 °F 43 °F 30.2 in NE 0.9 mph 2 mph 93% 0 in 104 W/m2
13:43 45 °F 43 °F 30.2 in WNW 4 mph 4 mph 93% 0 in 91 W/m2
13:48 45 °F 43 °F 30.2 in ESE 2.9 mph 3 mph 93% 0 in 77 W/m2
13:53 45 °F 43 °F 30.2 in Calm   2 mph 93% 0 in 60 W/m2
13:58 45 °F 42.8 °F 30.2 in WNW 2 mph 3 mph 92% 0 in 53 W/m2
14:03 45 °F 42.8 °F 30.2 in WNW 2.9 mph 3 mph 92% 0 in 53 W/m2
14:08 45.1 °F 43 °F 30.2 in West 2 mph 2 mph 92% 0 in 47 W/m2
14:13 45.1 °F 43 °F 30.2 in SSE 2 mph 4 mph 92% 0 in 44 W/m2
14:18 45.1 °F 43 °F 30.2 in West 2.9 mph 3 mph 92% 0 in 46 W/m2
14:23 45.1 °F 43 °F 30.2 in Calm   2 mph 92% 0 in 35 W/m2
14:28 45.1 °F 43 °F 30.2 in West 2.9 mph 4 mph 92% 0 in 33 W/m2
14:33 45 °F 42.8 °F 30.2 in Calm   3 mph 92% 0 in 33 W/m2
14:38 45.1 °F 43 °F 30.2 in Calm   4 mph 92% 0 in 54 W/m2
14:43 45.1 °F 43 °F 30.2 in NE 0.9 mph 2 mph 92% 0 in 46 W/m2
14:48 45.1 °F 43 °F 30.2 in NW 0.9 mph 2 mph 92% 0 in 49 W/m2
14:53 45.1 °F 43 °F 30.2 in WNW 2 mph 4 mph 92% 0 in 44 W/m2
14:58 45.1 °F 43 °F 30.2 in Calm   2 mph 92% 0 in 35 W/m2
15:03 45.3 °F 43.3 °F 30.2 in North 0.9 mph 3 mph 93% 0 in 28 W/m2
15:08 45.3 °F 43.2 °F 30.2 in WNW 2 mph 3 mph 92% 0 in 26 W/m2
15:13 45.3 °F 43.2 °F 30.2 in Calm   4 mph 92% 0 in 25 W/m2
15:18 45.5 °F 43.3 °F 30.2 in NW 0.9 mph 2 mph 92% 0 in 26 W/m2
15:23 45.5 °F 43.3 °F 30.2 in NW 2.9 mph 5 mph 92% 0 in 18 W/m2
15:28 45.5 °F 43.3 °F 30.2 in WSW 2 mph 4 mph 92% 0 in 16 W/m2
15:33 45.5 °F 43.3 °F 30.2 in Calm   3 mph 92% 0 in 16 W/m2
15:38 45.5 °F 43.3 °F 30.2 in WNW 2 mph 4 mph 92% 0 in 14 W/m2
15:43 45.5 °F 43.3 °F 30.2 in West 0.9 mph 3 mph 92% 0 in 12 W/m2
15:48 45.7 °F 43.5 °F 30.2 in Calm   4 mph 92% 0 in 12 W/m2
15:53 45.7 °F 43.5 °F 30.2 in West 2 mph 2 mph 92% 0 in 11 W/m2
15:58 45.5 °F 43.3 °F 30.2 in WNW 0.9 mph 2 mph 92% 0 in 11 W/m2
16:03 45.5 °F 43.3 °F 30.2 in Calm   1 mph 92% 0 in 11 W/m2
16:08 45.5 °F 43.3 °F 30.2 in Calm   1 mph 92% 0 in 7 W/m2
16:13 45.5 °F 43.3 °F 30.2 in West 0.9 mph 1 mph 92% 0 in 7 W/m2
16:18 45.5 °F 43.5 °F 30.2 in NW 0.9 mph 3 mph 93% 0 in 5 W/m2
16:23 45.5 °F 43.5 °F 30.2 in WNW 0.9 mph 2 mph 93% 0 in 0 W/m2
16:28 45.5 °F 43.5 °F 30.2 in Calm   1 mph 93% 0 in 0 W/m2
16:33 45.5 °F 43.5 °F 30.2 in NW 2.9 mph 3 mph 93% 0 in 0 W/m2
16:38 45.5 °F 43.5 °F 30.2 in WNW 2.9 mph 3 mph 93% 0 in 0 W/m2
16:43 45.3 °F 43.3 °F 30.2 in WNW 0.9 mph 2 mph 93% 0 in 0 W/m2
16:48 45.3 °F 43.3 °F 30.2 in Calm     93% 0 in 0 W/m2
16:53 45.3 °F 43.3 °F 30.2 in Calm     93% 0 in 0 W/m2
16:58 45.3 °F 43.3 °F 30.2 in Calm   1 mph 93% 0 in 0 W/m2
17:03 45.3 °F 43.3 °F 30.2 in Calm     93% 0 in 0 W/m2
17:08 45.3 °F 43.7 °F 30.3 in West 2 mph 2 mph 94% 0 in 0 W/m2
17:13 45.3 °F 43.7 °F 30.3 in Calm   2 mph 94% 0 in 0 W/m2
17:18 45.1 °F 43.5 °F 30.3 in Calm   2 mph 94% 0 in 0 W/m2
17:23 45.1 °F 43.5 °F 30.3 in Calm   2 mph 94% 0 in 0 W/m2
17:28 45.1 °F 43.5 °F 30.3 in Calm     94% 0 in 0 W/m2
17:33 45.1 °F 43.5 °F 30.3 in Calm     94% 0 in 0 W/m2
17:38 45.1 °F 43.5 °F 30.3 in Calm   1 mph 94% 0 in 0 W/m2
17:43 45.1 °F 43.5 °F 30.3 in Calm     94% 0 in 0 W/m2
17:49 45.1 °F 43.5 °F 30.3 in Calm     94% 0 in 0 W/m2
17:54 45.1 °F 43.5 °F 30.3 in Calm     94% 0 in 0 W/m2
17:59 45.1 °F 43.5 °F 30.3 in Calm     94% 0 in 0 W/m2
18:04 45.1 °F 43.5 °F 30.3 in Calm   1 mph 94% 0 in 0 W/m2
18:09 45.1 °F 43.5 °F 30.3 in Calm     94% 0 in 0 W/m2
18:14 45.1 °F 43.5 °F 30.3 in Calm   1 mph 94% 0 in 0 W/m2
18:19 45.1 °F 43.5 °F 30.3 in Calm   1 mph 94% 0 in 0 W/m2
18:24 45.1 °F 43.5 °F 30.3 in Calm   1 mph 94% 0 in 0 W/m2
18:29 45.3 °F 43.7 °F 30.3 in Calm   3 mph 94% 0 in 0 W/m2
18:34 45.3 °F 43.7 °F 30.3 in Calm   1 mph 94% 0 in 0 W/m2
18:39 45.3 °F 43.7 °F 30.3 in Calm   3 mph 94% 0 in 0 W/m2
18:44 45.3 °F 43.7 °F 30.3 in Calm   1 mph 94% 0 in 0 W/m2
18:49 45.3 °F 43.7 °F 30.3 in Calm   2 mph 94% 0 in 0 W/m2
18:54 45.3 °F 43.7 °F 30.3 in WNW 2 mph 4 mph 94% 0 in 0 W/m2
18:59 45.3 °F 43.7 °F 30.3 in Calm   3 mph 94% 0 in 0 W/m2
19:04 45.3 °F 43.7 °F 30.3 in West 0.9 mph 3 mph 94% 0 in 0 W/m2
19:09 45.3 °F 44.1 °F 30.3 in West 2.9 mph 4 mph 95% 0 in 0 W/m2
19:14 45.3 °F 44.1 °F 30.3 in Calm   2 mph 95% 0 in 0 W/m2
19:19 45.3 °F 44.1 °F 30.3 in WNW 4 mph 4 mph 95% 0 in 0 W/m2
19:24 45.3 °F 44.1 °F 30.3 in West 2 mph 3 mph 95% 0 in 0 W/m2
19:29 45.3 °F 44.1 °F 30.3 in Calm   2 mph 95% 0 in 0 W/m2
19:34 45.3 °F 44.1 °F 30.3 in WSW 4 mph 4 mph 95% 0 in 0 W/m2
19:39 45.3 °F 44.1 °F 30.3 in West 2 mph 6 mph 95% 0 in 0 W/m2
19:44 45.5 °F 44.2 °F 30.3 in WNW 4 mph 4 mph 95% 0 in 0 W/m2
19:49 45.3 °F 44.1 °F 30.3 in WSW 4 mph 6 mph 95% 0 in 0 W/m2
19:54 45.3 °F 44.1 °F 30.3 in WNW 2.9 mph 4 mph 95% 0 in 0 W/m2
19:59 45.3 °F 44.1 °F 30.3 in Calm   3 mph 95% 0 in 0 W/m2
20:04 45.3 °F 44.1 °F 30.3 in NW 2 mph 3 mph 95% 0 in 0 W/m2
20:09 45.3 °F 44.1 °F 30.3 in Calm   1 mph 95% 0 in 0 W/m2
20:14 45.3 °F 44.1 °F 30.3 in WNW 3 mph 3 mph 95% 0 in 0 W/m2
20:19 45.3 °F 44.1 °F 30.3 in Calm   1 mph 95% 0 in 0 W/m2
20:24 45.3 °F 44.1 °F 30.3 in Calm     95% 0 in 0 W/m2
20:29 45.3 °F 44.1 °F 30.3 in WNW 2 mph 2 mph 95% 0 in 0 W/m2
20:34 45.3 °F 44.1 °F 30.3 in Calm   3 mph 95% 0 in 0 W/m2
20:39 45.3 °F 44.1 °F 30.3 in West 2.9 mph 3 mph 95% 0 in 0 W/m2
20:44 45.3 °F 44.1 °F 30.3 in NW 2 mph 4 mph 95% 0 in 0 W/m2
20:49 45.3 °F 44.1 °F 30.3 in West 2 mph 4 mph 95% 0 in 0 W/m2
20:54 45.3 °F 44.1 °F 30.3 in WNW 2.9 mph 4 mph 95% 0 in 0 W/m2
20:59 45.3 °F 44.1 °F 30.3 in NW 4 mph 5 mph 95% 0 in 0 W/m2
21:04 45.3 °F 44.1 °F 30.3 in West 0.9 mph 5 mph 95% 0 in 0 W/m2
21:09 45.3 °F 44.1 °F 30.3 in West 2.9 mph 4 mph 95% 0 in 0 W/m2
21:14 45.3 °F 44.1 °F 30.3 in WNW 2.9 mph 5 mph 95% 0 in 0 W/m2
21:19 45.3 °F 44.1 °F 30.3 in WNW 0.9 mph 4 mph 95% 0 in 0 W/m2
21:24 45.3 °F 44.1 °F 30.3 in Calm   3 mph 95% 0 in 0 W/m2
21:29 45.3 °F 44.1 °F 30.3 in Calm   4 mph 95% 0 in 0 W/m2
21:34 45.3 °F 44.1 °F 30.3 in Calm     95% 0 in 0 W/m2
21:39 45.1 °F 43.9 °F 30.3 in Calm   2 mph 95% 0 in 0 W/m2
21:44 45.1 °F 43.9 °F 30.3 in Calm   1 mph 95% 0 in 0 W/m2
21:49 45.1 °F 43.9 °F 30.3 in West 2 mph 3 mph 95% 0 in 0 W/m2
21:54 45.1 °F 43.9 °F 30.3 in West 2 mph 4 mph 95% 0 in 0 W/m2
21:59 45.3 °F 44.1 °F 30.3 in WSW 2 mph 3 mph 95% 0 in 0 W/m2
22:04 45.3 °F 44.1 °F 30.3 in WNW 4.9 mph 7 mph 95% 0 in 0 W/m2
22:09 45.3 °F 44.1 °F 30.3 in West 2.9 mph 4 mph 95% 0 in 0 W/m2
22:14 45.3 °F 44.1 °F 30.3 in West 0.9 mph 2 mph 95% 0 in 0 W/m2
22:19 45.3 °F 44.1 °F 30.3 in Calm   1 mph 95% 0 in 0 W/m2
22:24 45.3 °F 44.1 °F 30.3 in West 0.9 mph 2 mph 95% 0 in 0 W/m2
22:29 45.1 °F 43.9 °F 30.3 in Calm   3 mph 95% 0 in 0 W/m2
22:34 45.1 °F 43.9 °F 30.3 in Calm   2 mph 95% 0 in 0 W/m2
22:39 45 °F 43.7 °F 30.3 in West 0.9 mph 3 mph 95% 0 in 0 W/m2
22:44 45 °F 43.7 °F 30.3 in West 2.9 mph 4 mph 95% 0 in 0 W/m2
22:49 45 °F 43.7 °F 30.3 in West 2 mph 3 mph 95% 0 in 0 W/m2
22:54 45 °F 43.7 °F 30.3 in West 2 mph 5 mph 95% 0 in 0 W/m2
22:59 45 °F 43.7 °F 30.3 in West 2 mph 3 mph 95% 0 in 0 W/m2
23:04 45 °F 43.7 °F 30.3 in Calm   4 mph 95% 0 in 0 W/m2
23:09 44.8 °F 43.5 °F 30.3 in West 2 mph 2 mph 95% 0 in 0 W/m2
23:14 44.8 °F 43.5 °F 30.3 in Calm     95% 0 in 0 W/m2
23:19 44.8 °F 43.5 °F 30.4 in West 2 mph 2 mph 95% 0 in 0 W/m2
23:24 44.8 °F 43.5 °F 30.4 in Calm     95% 0 in 0 W/m2
23:29 44.8 °F 43.5 °F 30.4 in Calm     95% 0 in 0 W/m2
23:34 44.8 °F 43.5 °F 30.4 in Calm     95% 0 in 0 W/m2
23:39 44.6 °F 43.3 °F 30.4 in Calm     95% 0 in 0 W/m2
23:44 44.4 °F 43.2 °F 30.4 in West 0.9 mph 1 mph 95% 0 in 0 W/m2
23:49 44.4 °F 43.2 °F 30.4 in Calm   2 mph 95% 0 in 0 W/m2
23:54 44.4 °F 43.2 °F 30.4 in Calm   2 mph 95% 0 in 0 W/m2
23:59 44.4 °F 43.2 °F 30.4 in NW 0.9 mph 2 mph 95% 0 in 0 W/m2
Juneau County Weather
Compliments of Weather Underground - 4 mb